Regional Weather Roundup
Issued by NWS

Home | Current Version | Previous Version | Text Only | Print | Product List | Glossary On
Versions: 1 2 3 4 5 6 7 8 9 10 11 12 13 14 15 16 17 18 19 20 21 22 23 24 25 26 27 28 29 30 31 32 33 34 35 36 37 38 39 40 41 42 43 44 45 46 47 48 49 50
000
ASUS45 KABQ 021910
RWRNM
NEW MEXICO REGIONAL WEATHER ROUNDUP
NATIONAL WEATHER SERVICE ALBUQUERQUE NM
100 PM MDT MON MAY 02 2016

NOTE: "FAIR" MEANS FEW OR NO CLOUDS BELOW 12,000 FEET AGL WITH NO
       SIGNIFICANT WEATHER OR OBSTRUCTIONS TO VISION.

      THIS PRODUCT IS RELEASED AS TWO VERSIONS.  ONE VERSION NEAR
      THE TOP OF THE HOUR CONTAINING PRELIMINARY DATA FROM ALBUQUERQUE
      AND OTHER STATIONS.  A FINAL VERSION WITH ADDITIONAL DATA IS
      ISSUED ABOUT 10 MINUTES AFTER THE HOUR.

NMZ501-503-504-510>518-022000-
NORTHWEST PLATEAU/NORTHCENTRAL MOUNTAINS

CITY           SKY/WX    TMP DP  RH WIND       PRES   REMARKS
FARMINGTON     FAIR      54  33  45 CALM      30.23F
LOS ALAMOS     PTSUNNY   46  33  60 E3        30.28F
SANTA FE       FAIR      54  31  41 MISG      30.25F
TAOS           FAIR      45  30  57 SW6       30.27F
ANGEL FIRE     FAIR      45  33  64 W13       30.25F

$$
NMZ402-403-502-505>509-022000-
WESTCENTRAL MOUNTAINS/SOUTHWEST MOUNTAINS

CITY           SKY/WX    TMP DP  RH WIND       PRES   REMARKS
GALLUP         FAIR      54  40  59 N10       30.23F
GRANTS         CLOUDY    47  37  67 S8        30.29F
SILVER CITY      N/A     59  32  36 SE7G21    30.23F

$$
NMZ407-409-411-412-022000-
SOUTHERN DESERTS

CITY           SKY/WX    TMP DP  RH WIND       PRES   REMARKS
LORDSBURG      FAIR      64  32  29 SE20G30   30.18F
DEMING         FAIR      65  33  30 E10G20    30.20F
LAS CRUCES     FAIR      60  31  33 CALM      30.23F
HOLLOMAN AFB   FAIR      61  31  32 S9        30.21F
ALAMOGORDO     FAIR      61  32  33 S7G18     30.22F
T OR C         LGT RAIN  60  32  34 VRB6      30.21F

$$
NMZ519>523-022000-
CENTRAL VALLEYS/CENTRAL HIGHLANDS

CITY           SKY/WX    TMP DP  RH WIND       PRES   REMARKS
ALBUQUERQUE    FAIR      53  32  44 SW6       30.26F
DOUBLE EAGLE   PTSUNNY   50  36  57 N3        30.27F
MORIARTY ARPT  FAIR      51  32  48 N6        30.28F
CLINES CORNERS FAIR      48  29  47 VRB7      30.25F
BELEN          FAIR      54  34  46 W6        30.26F
SOCORRO        FAIR      57  33  40 NW7       30.24F

$$
NMZ524>526-539-540-022000-
SOUTHCENTRAL MOUNTAINS

CITY           SKY/WX    TMP DP  RH WIND       PRES   REMARKS
RUIDOSO          N/A     46  36  66 SE9       30.28F

$$
NMZ527>531-022000-
NORTHEAST HIGHLANDS/NORTHEAST PLAINS

CITY           SKY/WX    TMP DP  RH WIND       PRES   REMARKS
LAS VEGAS      FAIR      48  35  60 S14G21    30.24F
RATON          FAIR      50  31  48 S7        30.21F
CLAYTON        FAIR      53  33  46 SW3       30.21F

$$
NMZ532>537-022000-
EASTCENTRAL PLAINS

CITY           SKY/WX    TMP DP  RH WIND       PRES   REMARKS
TUCUMCARI      FAIR      57  33  40 W9        30.23F
CANNON AFB     FAIR      57  34  42 VRB5      30.23F
CLOVIS AIRPORT FAIR      55  34  44 N5        30.25F

$$
NMZ028-029-538-022000-
SOUTHEAST PLAINS

CITY           SKY/WX    TMP DP  RH WIND       PRES   REMARKS
ROSWELL        FAIR      58  31  35 VRB5      30.25F
ARTESIA        FAIR      57  34  41 VRB6G13   30.25F
CARLSBAD       FAIR      61  35  37 N9        30.23F
HOBBS          SUNNY     59  32  36 N8        30.24F


$$




USA.gov is the U.S. government's official web portal to all federal, state and local government web resources and services.